Flag for China Weather past 2 weeks in Changchun, Jilin, China

27 °F

Light snow. Ice fog.

Feels Like: 15 °F
Forecast: 13 / 38 °F
Wind: 15 mph from South

Location: Changchun Airport

Current Time: Dec 1, 2015 at 5:45:12 PM

Latest Report: Dec 1, 2015 at 5:00 PM

Visibility: 1 mi

Pressure: 30.04 "Hg

Humidity: 93%

Dew point: 25 °F

Location of ChangchunLocation

Historic Weather in Changchun — Graph


Changchun temperature yesterday

Maximum temperature yesterday: 18 °F (at 10:00 AM)
Minimum temperature yesterday: 3 °F (at 3:00 AM)
Average temperature yesterday: 13 °F

Past Weeks' High & Low Weather Summary

High30 °F (Nov 16, 4:00 PM)86% (Nov 19, 6:00 AM)30.74 "Hg (Nov 19, 6:00 AM)
Low-4 °F (Nov 24, 7:00 AM)37% (Nov 24, 2:00 PM)30.04 "Hg (Dec 1, 4:00 PM)
Average13 °F66%30.41 "Hg
* Reported Nov 16 4:00 PM — Dec 1 4:00 PM, Changchun, Weather by CustomWeather, © 2015

Note: Actual official high and low records may vary slightly from our data, if they occured in-between our weather recording intervals... More about our weather records


Changchun weather history for previous 24 hours

Time TempWeatherWind HumidityBarometerVisibility
4:00 PM
Tue, Dec 1
27 °FLight snow. Ice fog.15 mph86%30.04 "Hg1 mi
3:00 PM27 °FLight snow. Ice fog.15 mph86%30.07 "Hg1 mi
2:00 PM27 °FLight snow. Ice fog.8 mph74%30.07 "Hg2 mi
1:00 PM25 °FLight snow. Ice fog.10 mph74%30.09 "Hg2 mi
12:00 PM23 °FIce fog.10 mph68%30.12 "Hg2 mi
11:00 AM21 °FIce fog.10 mph74%30.15 "Hg2 mi
10:00 AM19 °FLight snow. Ice fog.10 mph73%30.21 "Hg2 mi
9:00 AM16 °FIce fog.10 mph79%30.21 "Hg2 mi
8:00 AM14 °FIce fog.13 mph79%30.21 "Hg2 mi
7:00 AM10 °FIce fog.10 mph85%30.21 "Hg2 mi
6:00 AM9 °FIce fog.6 mph85%30.24 "Hg3 mi
5:00 AM9 °FIce fog.6 mph85%30.24 "Hg3 mi
4:00 AM9 °FIce fog.6 mph85%30.24 "Hg3 mi
3:00 AM10 °FIce fog.6 mph79%30.27 "Hg2 mi
2:00 AM10 °FIce fog.6 mph85%30.27 "Hg2 mi
1:00 AM12 °FIce fog.6 mph79%30.27 "Hg2 mi
12:00 AM12 °FIce fog.1 mph85%30.30 "Hg2 mi
11:00 PM
Mon, Nov 30
14 °FIce fog.1 mph79%30.30 "Hg2 mi
10:00 PM16 °FMostly cloudy.3 mph79%30.30 "Hg4 mi
9:00 PM18 °FMostly cloudy.3 mph73%30.30 "Hg4 mi
8:00 PM18 °FMostly cloudy.8 mph73%30.30 "Hg4 mi
7:00 PM18 °FMostly cloudy.8 mph79%30.30 "Hg4 mi
6:00 PM18 °FMostly cloudy.6 mph73%30.30 "Hg4 mi
5:00 PM18 °FIce fog.6 mph79%30.30 "Hg3 mi
Weather by CustomWeather, © 2015

See weather overviewHow to use our weather pages